Regional Weather Roundup
Issued by NWS

Home | Current Version | Previous Version | Text Only | Print | Product List | Glossary Off
Versions: 1 2 3 4 5 6 7 8 9 10 11 12 13 14 15 16 17 18 19 20 21 22 23 24 25 26 27 28 29 30 31 32 33 34 35 36 37 38 39 40 41 42 43 44 45 46 47 48 49 50

000
ASUS45 KCYS 051710
RWRWY

WYOMING REGIONAL WEATHER ROUNDUP
NATIONAL WEATHER SERVICE CHEYENNE WY
1100 AM MDT SUN JUL 05 2015

NOTE:  "FAIR" INDICATES FEW OR NO CLOUDS BELOW 12,000 FEET
WITH NO SIGNIFICANT WEATHER AND/OR OBSTRUCTIONS TO VISIBILITY.

WYZ001-051800-
YELLOWSTONE NATIONAL PARK

CITY           SKY/WX    TMP DP  RH WIND       PRES   REMARKS
LK YELLOWSTONE   N/A     62  46  55 VRB3      30.24R
W YELLOWSTONE  NOT AVBL

$$
WYZ002>013-054>058-071-098>099-051800-
NORTHERN WYOMING

CITY           SKY/WX    TMP DP  RH WIND       PRES   REMARKS
JACKSON        CLOUDY    68  52  56 S13       30.14R
CODY           PTSUNNY   59  48  67 N13G18    30.10R
GREYBULL       FAIR      70  54  56 NW30G40   29.95R
WORLAND        FAIR      68  55  63 NW13      30.01R HAZE
SHERIDAN       CLOUDY    61  54  77 NW18      30.07R
BUFFALO        CLOUDY    59  54  83 N25G41    30.07R
GILLETTE       CLOUDY    65  58  78 N20G30    29.99R
HULETT         FAIR      72  61  68 N15G21    29.97R
NEWCASTLE      FAIR      79  55  44 NW9       29.88F

$$
WYZ014>020-022>026-101>103-051800-
CENTRAL WYOMING

CITY           SKY/WX    TMP DP  RH WIND       PRES   REMARKS
BIG PINEY      LGT RAIN  62  53  72 NW16G23   30.20R
PINEDALE       LGT RAIN  63  48  59 W5        30.21R
DUBOIS         PTSUNNY   66  43  42 N8        30.15R
LANDER         CLOUDY    73  50  44 CALM      30.04R
RIVERTON       PTSUNNY   72  53  51 NE12      30.03R
CASPER         FAIR      74  56  53 N21G30    30.02R
DOUGLAS        FAIR      82  55  39 N24G35    29.96R

$$
WYZ021-027>030-104>119-051800-
SOUTHERN WYOMING

CITY           SKY/WX    TMP DP  RH WIND       PRES   REMARKS
EVANSTON       CLOUDY    61  55  81 W13       30.23R
KEMMERER       CLOUDY    59  55  88 W12       30.24R
FORT BRIDGER   CLOUDY    66  55  68 W6        30.24S
ROCK SPRINGS   CLOUDY    68  51  54 SW17      30.18R
DIXON          CLOUDY    67  55  64 S6        30.22S
RAWLINS        FAIR      71  52  50 SW21G32   30.15R
SARATOGA       PTSUNNY   70  52  52 S6        30.19R
LARAMIE        FAIR      79  49  34 N12       30.13S
CHEYENNE       FAIR      87  52  29 W8        30.03S
TORRINGTON     FAIR      90  53  28 W8        29.86S
PINE BLUFFS    FAIR      86  52  30 W7        29.97S

$$



USA.gov is the U.S. government's official web portal to all federal, state and local government web resources and services.